This is the latest recevied weather packets stored in our database for station/object KY4GW. If no packets are shown the sender has not sent any weather packets the latest 10 day(s).
| Time | Temp. | Humidity | Pressure | Rain* | Wind** | Luminosity | Snow |
|---|---|---|---|---|---|---|---|
| 1778000949 | 21.67° C | 61% | 1013.8 hPa | 0 mm | - | 378 W/m² | - |
| 1778000646 | 21.67° C | 59% | 1013.8 hPa | 0 mm | - | 332 W/m² | - |
| 1778000341 | 21.67° C | 61% | 1013.8 hPa | 0 mm | - | 339 W/m² | - |
| 1778000036 | 21.67° C | 60% | 1013.8 hPa | 0 mm | - | 401 W/m² | - |
| 1777999732 | 21.11° C | 61% | 1013.8 hPa | 0 mm | - | 394 W/m² | - |
| 1777999429 | 21.11° C | 59% | 1013.8 hPa | 0 mm | - | 345 W/m² | - |
| 1777999128 | 21.11° C | 60% | 1013.8 hPa | 0 mm | - | 347 W/m² | - |
| 1777998826 | 21.11° C | 61% | 1013.8 hPa | 0 mm | - | 333 W/m² | - |
| 1777998524 | 20.56° C | 61% | 1013.8 hPa | 0 mm | - | 278 W/m² | - |
| 1777998220 | 20.56° C | 60% | 1013.8 hPa | 0 mm | - | 227 W/m² | - |
| 1777997917 | 20.56° C | 60% | 1013.8 hPa | 0 mm | - | 216 W/m² | - |
| 1777997614 | 20.56° C | 62% | 1014.1 hPa | 0 mm | - | 225 W/m² | - |
| 1777997311 | 21.11° C | 62% | 1014.1 hPa | 0 mm | - | 210 W/m² | - |
| 1777997010 | 21.11° C | 63% | 1014.1 hPa | 0 mm | - | 219 W/m² | - |
| 1777996706 | 21.67° C | 64% | 1013.8 hPa | 0 mm | - | 241 W/m² | - |
| 1777996401 | 21.11° C | 62% | 1013.8 hPa | 0 mm | - | 314 W/m² | - |
| 1777996099 | 21.11° C | 62% | 1013.8 hPa | 0 mm | - | 359 W/m² | - |
| 1777995795 | 21.11° C | 62% | 1013.4 hPa | 0 mm | - | 406 W/m² | - |
| 1777995491 | 21.11° C | 62% | 1013.4 hPa | 0 mm | - | 394 W/m² | - |
| 1777995188 | 20.56° C | 62% | 1013.4 hPa | 0 mm | - | 376 W/m² | - |
| 1777994885 | 20.56° C | 63% | 1013.4 hPa | 0 mm | - | 358 W/m² | - |
| 1777994582 | 20.56° C | 62% | 1013.4 hPa | 0 mm | - | 351 W/m² | - |
| 1777994276 | 20.56° C | 63% | 1013.4 hPa | 0 mm | - | 337 W/m² | - |
| 1777993974 | 20.56° C | 63% | 1013.4 hPa | 0 mm | - | 331 W/m² | - |
| 1777993670 | 20° C | 64% | 1013.4 hPa | 0 mm | - | 319 W/m² | - |
* Rain latest hour (hover to see other rain measurements)
** Current wind speed in m/s (hover to see current wind gust speed)